• Em Portugal
  • Lista de países
  • Para 7 dias
  • Temperatura da água
  • Mapas de satélite
  • Mapa do tempo
  • Widgets de tempo
  • user-avatar
    Iniciar Sessão

    Previsão horária em Sankt Pölten

    Hoje, 19 Outubro, Sexta-feira

    Tempo Temperatura Precipitação Vento Pressão Humidade
    00:00 +12°C° 0 mm 1 m/s 739 mmHg 90%
    01:00 +12°C° 0 mm 1 m/s 739 mmHg 91%
    02:00 +12°C° 0 mm 1 m/s 739 mmHg 91%
    03:00 +11°C° 0 mm 1 m/s 739 mmHg 92%
    04:00 +11°C° 0 mm 1 m/s 739 mmHg 92%
    05:00 +11°C° 0 mm 1 m/s 739 mmHg 92%
    06:00 +11°C° 0 mm 1 m/s 739 mmHg 92%
    07:00 +11°C° 0 mm 1 m/s 739 mmHg 92%
    08:00 +13°C° 0 mm 1 m/s 739 mmHg 84%
    09:00 +15°C° 0 mm 1 m/s 740 mmHg 75%
    10:00 +18°C° 0 mm 1 m/s 740 mmHg 67%
    11:00 +19°C° 0 mm 1 m/s 740 mmHg 63%
    12:00 +20°C° 0 mm 1 m/s 740 mmHg 59%
    13:00 +20°C° 0 mm 1 m/s 740 mmHg 57%
    14:00 +19°C° 0 mm 1 m/s 739 mmHg 60%
    15:00 +19°C° 0 mm 1 m/s 739 mmHg 64%
    16:00 +18°C° 0 mm 1 m/s 739 mmHg 67%
    17:00 +16°C° 0 mm 1 m/s 739 mmHg 73%
    18:00 +14°C° 0 mm 1 m/s 740 mmHg 79%
    19:00 +13°C° 0 mm 1 m/s 740 mmHg 85%
    20:00 +12°C° 0 mm 1 m/s 740 mmHg 86%
    21:00 +12°C° 0 mm 1 m/s 740 mmHg 88%
    22:00 +11°C° 0 mm 1 m/s 741 mmHg 89%
    23:00 +11°C° 0 mm 1 m/s 741 mmHg 90%

    Amanhã, 20 Outubro, Sábado

    Tempo Temperatura Precipitação Vento Pressão Humidade
    00:00 +11°C° 0 mm 1 m/s 741 mmHg 91%
    01:00 +10°C° 0 mm 1 m/s 741 mmHg 92%
    02:00 +10°C° 0 mm 1 m/s 741 mmHg 93%
    03:00 +10°C° 0 mm 1 m/s 741 mmHg 93%
    04:00 +10°C° 0 mm 1 m/s 741 mmHg 93%
    05:00 +10°C° 0 mm 1 m/s 742 mmHg 93%
    06:00 +10°C° 0 mm 1 m/s 742 mmHg 93%
    07:00 +10°C° 0 mm 1 m/s 742 mmHg 92%
    08:00 +12°C° 0 mm 1 m/s 742 mmHg 85%
    09:00 +14°C° 0 mm 1 m/s 743 mmHg 77%
    10:00 +16°C° 0 mm 1 m/s 743 mmHg 70%
    11:00 +16°C° 0 mm 2 m/s 743 mmHg 68%
    12:00 +17°C° 0 mm 2 m/s 743 mmHg 66%
    13:00 +17°C° 0 mm 2 m/s 742 mmHg 65%
    14:00 +17°C° 0.1 mm 2 m/s 742 mmHg 68%
    15:00 +16°C° 0.1 mm 2 m/s 742 mmHg 72%
    16:00 +15°C° 0.1 mm 2 m/s 742 mmHg 75%
    17:00 +14°C° 0.1 mm 2 m/s 742 mmHg 79%
    18:00 +13°C° 0.1 mm 2 m/s 743 mmHg 84%
    19:00 +12°C° 0.1 mm 2 m/s 743 mmHg 89%
    20:00 +12°C° 0 mm 2 m/s 743 mmHg 88%
    21:00 +10°C° 0 mm 2 m/s 743 mmHg 87%
    22:00 +10°C° 0 mm 2 m/s 743 mmHg 87%
    23:00 +9°C° 0 mm 2 m/s 743 mmHg 86%

    Depois de amanhã, 21 Outubro, Domingo

    Tempo Temperatura Precipitação Vento Pressão Humidade
    00:00 +9°C° 0 mm 2 m/s 743 mmHg 86%
    01:00 +8°C° 0 mm 2 m/s 743 mmHg 85%
    02:00 +8°C° 0 mm 2 m/s 743 mmHg 85%
    03:00 +7°C° 0 mm 2 m/s 743 mmHg 85%
    04:00 +7°C° 0 mm 2 m/s 743 mmHg 85%
    05:00 +6°C° 0 mm 2 m/s 743 mmHg 86%
    06:00 +6°C° 0 mm 2 m/s 743 mmHg 87%
    07:00 +5°C° 0 mm 2 m/s 743 mmHg 88%
    08:00 +6°C° 0.2 mm 2 m/s 743 mmHg 84%
    09:00 +8°C° 0.2 mm 2 m/s 743 mmHg 81%
    10:00 +9°C° 0.2 mm 3 m/s 743 mmHg 77%
    11:00 +9°C° 0.1 mm 3 m/s 743 mmHg 75%
    12:00 +10°C° 0.1 mm 3 m/s 743 mmHg 73%
    13:00 +10°C° 0.1 mm 2 m/s 743 mmHg 70%
    14:00 +10°C° 0.1 mm 2 m/s 743 mmHg 71%
    15:00 +10°C° 0.1 mm 2 m/s 742 mmHg 71%
    16:00 +10°C° 0.1 mm 2 m/s 742 mmHg 71%
    17:00 +9°C° 0 mm 2 m/s 743 mmHg 75%
    18:00 +9°C° 0 mm 1 m/s 743 mmHg 80%
    19:00 +8°C° 0 mm 1 m/s 743 mmHg 84%
    20:00 +7°C° 0 mm 1 m/s 743 mmHg 86%
    21:00 +7°C° 0 mm 1 m/s 744 mmHg 87%
    22:00 +7°C° 0 mm 1 m/s 744 mmHg 88%
    23:00 +6°C° 0 mm 1 m/s 744 mmHg 89%

    22 Outubro, Segunda-feira

    Tempo Temperatura Precipitação Vento Pressão Humidade
    00:00 +6°C° 0 mm 1 m/s 743 mmHg 90%
    01:00 +6°C° 0 mm 1 m/s 743 mmHg 90%
    02:00 +6°C° 0 mm 1 m/s 743 mmHg 90%
    03:00 +5°C° 0 mm 1 m/s 743 mmHg 91%
    04:00 +5°C° 0 mm 1 m/s 743 mmHg 91%
    05:00 +5°C° 0 mm 1 m/s 743 mmHg 90%
    06:00 +5°C° 0 mm 1 m/s 743 mmHg 90%
    07:00 +5°C° 0 mm 1 m/s 743 mmHg 89%
    08:00 +8°C° 0 mm 1 m/s 742 mmHg 81%
    09:00 +10°C° 0 mm 1 m/s 742 mmHg 72%
    10:00 +12°C° 0 mm 1 m/s 742 mmHg 64%
    11:00 +13°C° 0 mm 1 m/s 742 mmHg 59%
    12:00 +14°C° 0 mm 1 m/s 741 mmHg 55%
    13:00 +15°C° 0 mm 1 m/s 741 mmHg 50%
    14:00 +14°C° 0 mm 1 m/s 741 mmHg 54%
    15:00 +14°C° 0 mm 1 m/s 741 mmHg 58%
    16:00 +13°C° 0 mm 1 m/s 740 mmHg 62%
    17:00 +10°C° 0 mm 2 m/s 741 mmHg 68%
    18:00 +9°C° 0 mm 2 m/s 741 mmHg 73%
    19:00 +7°C° 0 mm 2 m/s 741 mmHg 79%
    20:00 +7°C° 0 mm 2 m/s 741 mmHg 80%
    21:00 +7°C° 0 mm 2 m/s 742 mmHg 81%
    22:00 +6°C° 0 mm 2 m/s 742 mmHg 82%
    23:00 +7°C° 0.1 mm 3 m/s 742 mmHg 83%

    23 Outubro, Terça-feira

    Tempo Temperatura Precipitação Vento Pressão Humidade
    00:00 +7°C° 0.1 mm 3 m/s 742 mmHg 83%
    01:00 +7°C° 0.1 mm 3 m/s 742 mmHg 84%
    02:00 +7°C° 0.5 mm 3 m/s 742 mmHg 86%
    03:00 +7°C° 0.5 mm 3 m/s 742 mmHg 88%
    04:00 +7°C° 0.5 mm 3 m/s 742 mmHg 91%
    05:00 +7°C° 0.3 mm 3 m/s 742 mmHg 90%
    06:00 +7°C° 0.3 mm 3 m/s 742 mmHg 90%
    07:00 +5°C° 0.3 mm 3 m/s 742 mmHg 90%
    08:00 +7°C° 0 mm 3 m/s 742 mmHg 85%
    09:00 +7°C° 0 mm 3 m/s 743 mmHg 80%
    10:00 +8°C° 0 mm 3 m/s 743 mmHg 76%
    11:00 +7°C° 0 mm 4 m/s 742 mmHg 71%
    12:00 +8°C° 0 mm 4 m/s 742 mmHg 66%
    13:00 +9°C° 0 mm 5 m/s 742 mmHg 61%
    14:00 +8°C° 0 mm 5 m/s 741 mmHg 62%
    15:00 +8°C° 0 mm 4 m/s 741 mmHg 63%
    16:00 +8°C° 0 mm 4 m/s 741 mmHg 64%
    17:00 +7°C° 0 mm 5 m/s 741 mmHg 68%
    18:00 +6°C° 0 mm 5 m/s 741 mmHg 72%
    19:00 +6°C° 0 mm 5 m/s 741 mmHg 76%
    20:00 +6°C° 0.1 mm 5 m/s 741 mmHg 77%
    21:00 +5°C° 0.1 mm 6 m/s 740 mmHg 78%
    22:00 +5°C° 0.1 mm 6 m/s 740 mmHg 79%
    23:00 +5°C° 0.3 mm 6 m/s 739 mmHg 80%

    24 Outubro, Quarta-feira

    Tempo Temperatura Precipitação Vento Pressão Humidade
    00:00 +5°C° 0.3 mm 7 m/s 738 mmHg 81%
    01:00 +5°C° 0.3 mm 7 m/s 738 mmHg 82%
    02:00 +6°C° 0.8 mm 7 m/s 737 mmHg 83%
    03:00 +6°C° 0.8 mm 7 m/s 737 mmHg 84%
    04:00 +6°C° 0.8 mm 7 m/s 736 mmHg 85%
    05:00 +6°C° 0.5 mm 7 m/s 736 mmHg 85%
    06:00 +8°C° 0.5 mm 7 m/s 735 mmHg 85%
    07:00 +8°C° 0.5 mm 7 m/s 735 mmHg 86%
    08:00 +9°C° 0.7 mm 8 m/s 735 mmHg 86%
    09:00 +9°C° 0.7 mm 8 m/s 734 mmHg 85%
    10:00 +9°C° 0.7 mm 8 m/s 734 mmHg 85%
    11:00 +10°C° 0.7 mm 8 m/s 734 mmHg 85%
    12:00 +10°C° 0.7 mm 8 m/s 734 mmHg 85%
    13:00 +10°C° 0.7 mm 8 m/s 734 mmHg 85%
    14:00 +10°C° 1.1 mm 8 m/s 734 mmHg 86%
    15:00 +11°C° 1.1 mm 8 m/s 734 mmHg 87%
    16:00 +11°C° 1.1 mm 8 m/s 734 mmHg 88%
    17:00 +11°C° 1.1 mm 8 m/s 735 mmHg 88%
    18:00 +11°C° 1.1 mm 8 m/s 735 mmHg 88%
    19:00 +11°C° 1.1 mm 7 m/s 735 mmHg 89%
    20:00 +11°C° 0.6 mm 7 m/s 736 mmHg 89%
    21:00 +11°C° 0.6 mm 7 m/s 736 mmHg 89%
    22:00 +11°C° 0.6 mm 7 m/s 736 mmHg 89%
    23:00 +11°C° 0.5 mm 7 m/s 736 mmHg 88%
    Mostrar mais